Dewpoint
37 38 39 39 38 38 38 38 38 38 39 39 40 41 41 41 42 42 43 43 43 43 43 43 43 43 44 45 46 46 47 48 49 51 52 51 50 49 49 50 51 52 53 53 54 54 54 54 55 55 56 57 58 59 60 61 62 62 63 63 63 63 63 63 63 63 63 63 63 63 63 63 62 62 62 62 62 61 61 61 60 60 60 60 61 62
37 38 38 37 37 37 37 38 38 38 39 40 40 41 41 40 41 41 42 43 44 44 44 43 43 43 42 44 45 45 46 47 49 50 51 50 50 49 48 49 50 51 52 53 53 54 54 54 54 55 55 56 56 57 59 59 61 61 62 62 63 63 63 63 63 63 63 63 63 63 62 62 61 62 62 62 62 61 61 61 60 60 60 61 62 62
37 37 37 37 37 37 37 37 38 38 39 40 40 40 40 40 40 40 41 42 44 44 44 43 42 42 42 43 44 45 45 47 49 50 51 50 49 48 48 48 49 50 51 52 53 53 54 54 54 54 54 55 55 56 57 58 59 59 60 61 61 61 61 62 62 62 62 62 62 62 61 61 61 62 62 62 62 62 61 61 61 61 61 62 62 62
37 36 36 36 37 37 37 37 37 38 39 40 39 39 39 39 40 40 40 41 42 43 43 43 42 42 41 42 43 44 45 46 48 50 51 50 49 48 47 47 48 49 50 51 52 53 54 54 54 54 54 55 55 55 55 56 56 57 58 59 59 59 59 60 60 60 60 60 60 60 60 61 61 62 62 62 62 62 61 61 61 61 62 62 62 62
36 36 36 36 36 36 36 37 37 38 39 39 38 38 39 39 39 39 40 40 40 41 41 41 41 41 41 41 42 43 45 46 48 50 50 49 48 47 47 47 47 48 49 50 51 53 53 54 54 54 54 54 54 54 54 54 54 55 56 56 57 58 58 58 59 59 59 59 59 60 60 60 61 61 62 62 62 62 62 62 62 62 62 62 62 62
36 36 36 36 36 36 36 36 37 37 37 36 37 38 38 39 39 39 38 38 38 38 39 40 40 41 41 41 42 43 45 46 48 50 49 48 47 47 46 46 47 47 48 49 50 52 53 53 54 54 54 54 54 54 54 53 53 54 54 55 55 56 57 57 58 58 58 58 59 59 59 60 60 61 61 61 62 62 62 62 62 62 62 63 63 63
36 36 36 36 35 35 35 35 36 36 35 35 36 36 37 37 37 38 38 38 38 37 37 38 38 39 41 41 42 43 44 46 48 49 48 48 47 46 45 46 46 46 47 48 50 51 52 53 53 54 54 54 54 54 53 53 53 53 53 54 54 55 56 57 57 57 57 58 58 59 59 59 59 60 60 60 61 61 62 62 62 62 62 62 63 63
35 35 35 35 34 34 33 33 34 35 35 35 35 36 36 36 36 36 37 38 38 37 37 36 36 37 39 40 41 42 44 46 47 47 47 46 45 45 45 45 45 46 46 48 49 50 52 53 53 53 54 54 54 54 53 52 52 52 52 52 53 54 54 55 56 57 57 57 58 58 58 59 59 59 59 59 60 61 61 62 62 62 62 62 62 63
34 34 33 34 33 32 31 31 32 34 35 35 35 35 35 35 35 35 36 36 36 36 36 35 35 36 38 39 40 41 44 45 46 46 45 45 44 43 44 44 45 45 46 47 48 50 51 52 53 53 53 53 53 53 53 52 52 52 52 52 52 52 53 54 55 56 56 57 57 57 58 58 58 58 59 59 59 59 60 61 61 61 61 62 62 62
33 33 32 32 32 31 30 29 30 32 35 35 35 35 35 34 34 34 34 34 34 34 33 33 34 35 36 38 39 41 43 45 45 45 44 44 43 43 43 43 43 44 45 46 48 49 51 52 52 53 53 53 53 53 52 52 52 51 51 52 52 52 52 53 54 54 55 56 56 57 57 57 58 58 58 58 59 59 59 59 60 60 61 61 61 62
32 31 31 30 29 29 29 29 29 31 33 33 33 33 33 33 34 33 32 32 32 32 32 32 32 33 34 35 37 40 42 43 43 42 42 42 42 42 42 41 41 42 44 45 47 49 50 51 52 52 52 52 52 52 52 51 51 51 51 51 52 52 52 52 53 53 54 55 56 56 57 57 57 57 58 58 58 58 58 59 59 59 59 60 61 61
30 29 29 28 28 27 27 28 28 29 30 29 29 30 31 33 34 34 32 32 31 31 31 31 32 33 34 34 36 38 41 41 40 40 40 40 41 40 39 39 40 41 42 44 45 47 49 50 51 51 52 52 51 51 51 51 51 51 51 51 52 52 52 52 52 53 53 54 54 55 56 56 57 57 57 57 57 57 57 58 58 58 58 59 59 60
29 29 28 28 27 27 26 26 26 27 27 27 27 29 30 32 33 34 33 32 31 30 30 31 31 32 34 34 35 37 39 39 38 38 37 38 38 38 37 37 37 39 40 42 43 45 48 50 50 51 51 51 51 50 50 50 50 50 51 51 52 52 52 52 52 52 52 53 54 54 55 56 56 56 57 57 57 57 57 57 57 57 58 58 59 59
29 28 28 27 27 26 26 26 25 25 26 27 28 29 31 32 32 32 32 30 30 30 30 30 30 31 32 32 35 38 39 37 36 36 36 36 37 38 37 37 37 38 40 41 42 44 47 49 50 50 50 50 50 50 50 50 50 50 51 51 51 52 52 52 52 52 52 52 53 53 54 54 55 56 56 56 56 56 56 56 57 57 57 57 58 58
29 28 27 27 27 26 26 26 26 26 26 27 29 30 31 32 32 31 30 29 29 29 29 29 29 29 29 30 33 37 37 36 35 35 34 35 36 37 38 37 37 38 40 41 42 44 46 48 50 50 50 50 50 50 50 50 50 50 50 51 51 51 51 52 52 52 52 52 52 53 53 54 54 55 55 56 56 56 56 56 56 56 57 57 57 58
29 28 27 27 27 27 26 26 27 27 27 28 29 30 31 30 30 30 30 29 29 29 28 28 27 27 27 27 31 35 36 35 34 34 33 33 34 36 38 37 37 37 39 40 42 44 46 48 49 50 50 50 50 50 50 50 50 50 50 51 51 51 51 51 51 52 52 52 52 52 52 53 53 54 54 55 55 55 56 56 56 56 56 57 57 57
29 28 27 27 27 27 27 27 27 27 28 29 29 30 30 31 31 30 30 29 29 28 28 27 27 25 25 26 29 32 36 35 34 33 33 32 33 35 37 37 37 38 39 41 42 44 45 46 47 48 48 49 49 49 50 50 50 50 50 50 50 51 51 51 51 51 52 52 52 52 52 52 52 53 53 54 54 55 55 55 55 56 56 56 57 57
29 28 28 27 27 27 27 27 27 28 29 28 29 30 31 31 31 31 30 29 29 28 28 27 27 26 25 26 27 31 35 34 34 33 33 32 33 34 37 37 38 38 39 41 42 44 45 45 46 46 46 47 48 48 49 50 50 50 50 50 50 50 50 51 51 51 51 51 52 52 52 52 52 52 52 53 54 54 54 55 55 55 55 55 56 56
30 29 29 28 28 28 28 27 27 27 27 28 29 30 30 31 30 30 30 29 29 29 28 28 27 27 27 27 28 31 34 34 34 34 33 32 32 34 36 37 38 38 39 41 42 44 45 45 46 46 45 46 46 48 49 50 50 50 50 50 50 50 50 50 51 51 51 51 51 51 51 51 51 51 51 52 52 53 54 54 55 55 55 55 55 56
32 31 30 30 29 29 28 28 28 28 28 30 31 31 31 31 30 30 30 29 29 29 29 29 28 28 28 29 30 32 34 35 34 33 33 32 33 34 36 37 37 37 38 40 41 42 43 44 45 45 45 45 46 47 48 49 49 50 50 50 50 50 50 50 50 50 50 51 51 51 51 51 51 51 51 51 51 52 53 54 54 55 55 55 55 55
33 32 32 31 30 29 29 28 29 29 31 32 32 32 31 30 30 30 30 30 30 30 31 30 30 30 31 31 32 34 36 35 34 33 32 32 32 33 35 36 37 37 37 38 39 41 41 42 43 43 44 45 46 47 48 48 48 49 49 50 50 50 50 50 50 50 50 50 50 50 50 50 50 50 50 50 51 51 52 53 54 54 55 55 55 55
34 34 33 32 32 31 31 31 32 33 33 33 32 32 31 30 30 30 30 30 31 31 32 32 32 32 33 33 34 35 36 35 34 33 32 32 32 33 34 36 36 36 35 35 36 38 40 41 42 43 44 45 46 47 47 47 48 48 48 49 50 50 50 50 50 50 50 50 50 50 50 50 50 50 50 50 50 51 51 52 53 54 54 54 55 55
36 35 35 34 34 34 34 34 34 34 34 34 33 32 32 31 30 30 31 32 32 32 33 33 34 35 35 35 34 34 34 34 33 33 32 31 31 32 33 34 34 33 32 33 35 37 39 40 41 43 45 45 46 46 46 47 47 47 48 49 50 50 50 50 50 50 50 50 50 50 50 50 50 50 50 50 50 50 51 51 52 53 54 54 54 55
36 36 36 36 36 36 35 35 35 35 34 34 34 33 33 33 33 33 33 34 34 35 36 36 36 35 34 33 32 32 32 32 32 32 32 30 30 30 31 32 32 31 31 33 35 37 39 40 41 43 44 45 45 45 46 46 46 47 48 49 50 50 50 50 50 50 50 50 50 50 50 50 50 50 50 50 50 50 50 51 51 52 52 53 54 54
36 36 36 36 36 37 36 36 36 36 35 35 34 34 34 35 35 35 36 36 36 36 36 36 34 33 32 32 31 31 30 31 31 31 31 29 28 29 29 30 30 31 32 34 36 38 39 39 40 41 43 44 45 45 45 46 46 47 49 49 50 50 50 50 50 50 50 50 50 50 50 50 50 50 50 50 50 50 50 50 50 51 51 52 52 53
36 36 37 37 38 39 39 39 38 38 38 37 36 36 36 36 36 36 36 36 36 36 36 34 33 32 31 31 30 30 29 30 30 30 30 29 28 28 29 30 32 33 34 36 37 38 37 37 37 38 40 41 43 44 45 45 47 48 49 49 49 49 49 50 50 50 50 50 50 50 50 50 50 50 50 50 50 50 50 50 50 50 50 51 51 52
37 38 39 39 40 40 40 40 40 40 40 39 38 38 37 36 36 36 36 36 36 36 35 34 32 32 31 30 30 29 29 30 30 30 30 29 28 28 29 32 33 35 35 35 35 35 35 35 35 36 38 40 41 43 45 45 46 47 47 47 48 48 49 49 49 49 49 49 49 50 50 50 50 50 50 50 50 50 50 50 50 50 50 50 51 52
37 37 38 38 39 40 40 40 40 40 40 40 40 39 38 37 36 36 36 36 35 35 35 34 32 32 31 30 30 30 30 30 30 30 30 30 29 29 30 32 34 34 33 32 32 32 33 33 34 35 36 38 40 42 44 45 45 45 45 45 46 46 47 48 48 48 49 49 49 49 50 50 50 50 50 50 50 50 50 50 50 50 50 50 52 53
36 36 36 37 37 37 38 38 39 39 39 39 40 39 39 37 36 36 36 36 36 35 35 34 33 32 32 31 31 31 31 31 31 31 31 31 31 30 31 32 32 32 31 31 31 31 31 32 33 34 35 37 39 41 42 42 43 43 43 44 45 45 46 46 47 47 47 48 48 49 49 50 50 50 50 50 50 50 50 50 50 50 51 51 52 53
32 32 33 33 34 34 34 34 35 36 37 38 38 39 38 37 36 36 36 36 36 35 35 35 34 33 32 32 31 30 29 29 30 31 33 32 31 30 30 30 31 31 32 32 31 30 30 30 31 32 34 36 38 39 39 40 41 41 42 43 44 45 45 45 45 46 46 47 48 48 49 49 50 50 50 50 50 50 50 50 50 51 52 52 53 53
30 30 30 31 31 31 32 32 32 33 34 36 36 37 37 36 36 36 36 36 36 35 35 35 34 34 33 32 31 29 28 28 30 32 33 32 30 30 30 31 31 32 32 33 32 30 29 29 30 31 33 35 36 37 38 39 40 41 41 42 43 44 45 45 45 45 46 47 47 48 48 49 49 50 50 50 50 50 50 50 50 51 51 52 52 53
30 30 30 30 30 30 31 31 31 32 32 33 33 34 34 35 35 35 35 35 35 35 35 35 35 35 34 33 32 31 30 30 31 32 33 32 32 32 32 32 32 32 32 34 34 32 30 29 29 30 32 33 34 35 36 37 38 40 40 41 41 42 43 44 45 45 46 47 47 48 48 49 49 49 50 50 50 50 50 50 50 51 51 51 51 52
31 31 30 31 30 30 30 30 30 31 31 31 31 32 32 32 33 33 34 34 34 34 34 35 35 35 35 35 34 33 32 32 33 34 34 33 32 32 32 32 32 32 33 33 34 33 32 31 30 30 31 31 32 33 34 36 37 38 39 39 40 40 41 43 44 45 46 47 47 48 48 48 49 49 49 49 50 50 50 50 50 50 51 51 51 51
31 31 31 30 30 30 30 30 30 30 30 30 30 31 31 31 32 32 32 32 33 33 34 34 35 35 35 35 34 34 33 33 34 35 35 34 33 33 33 33 33 33 33 32 32 32 32 31 31 30 30 30 31 32 33 34 36 37 38 39 39 39 41 42 43 44 45 46 47 48 48 49 49 49 49 49 49 50 50 50 50 50 50 50 50 50
31 30 30 30 29 29 29 29 29 29 29 29 30 30 30 30 31 31 32 32 32 32 33 34 35 35 35 35 34 34 33 33 34 35 35 34 34 34 34 33 33 33 32 32 32 32 31 31 31 31 30 30 30 31 32 33 34 36 37 38 38 39 40 41 41 42 44 45 46 47 47 48 48 48 48 48 49 50 50 50 50 50 50 50 50 50
30 30 30 29 29 29 28 28 29 29 29 29 29 29 29 30 30 30 31 31 32 32 33 34 35 35 36 36 35 34 34 34 35 35 36 35 35 35 35 34 34 34 33 33 33 32 32 31 31 31 31 30 30 30 30 32 33 34 35 36 37 38 38 40 41 41 42 43 44 45 46 46 47 47 48 48 48 49 49 50 50 50 50 50 50 50
30 30 30 29 29 28 28 28 28 28 28 28 28 28 29 29 29 30 31 32 32 33 33 34 35 36 36 36 36 36 36 35 36 36 36 36 36 36 36 35 35 35 35 34 34 33 33 32 32 31 31 30 30 29 30 31 32 32 33 34 35 36 37 38 39 40 41 41 42 43 44 45 46 47 47 47 48 48 49 49 49 49 49 49 49 50
30 30 29 29 28 27 27 27 27 27 27 27 27 27 28 29 30 31 31 31 31 31 31 32 33 35 36 37 38 38 37 37 36 37 37 38 37 37 36 36 36 36 36 36 35 34 33 32 31 30 29 30 30 30 30 31 31 31 32 33 34 35 36 36 38 39 40 40 41 42 43 45 45 46 47 47 47 47 47 48 48 49 49 49 49 49
28 28 28 28 28 27 27 27 27 27 27 27 27 28 30 31 31 31 30 30 29 29 30 31 32 33 35 36 37 38 38 38 37 37 37 38 37 37 37 37 36 37 37 37 36 35 34 33 32 31 30 30 30 30 30 30 31 31 32 32 33 33 34 36 37 38 39 40 41 41 42 43 44 45 45 45 46 46 46 46 47 47 48 49 49 49
29 28 28 29 28 28 28 27 27 27 28 29 31 31 31 30 29 28 28 28 29 29 29 30 31 32 32 34 36 37 38 38 38 38 38 38 38 38 38 37 37 37 37 36 36 36 35 34 33 33 32 32 31 31 31 31 31 32 32 32 32 32 33 34 36 37 38 38 39 40 40 41 42 43 44 45 45 45 45 45 46 46 47 48 48 48
30 29 29 28 28 28 28 28 29 30 32 32 31 30 28 27 27 27 27 27 27 28 28 29 29 30 31 33 35 36 37 37 38 38 38 38 38 38 37 37 37 37 36 36 36 36 35 34 34 33 33 32 32 32 32 31 32 32 33 32 32 32 33 34 35 36 37 38 39 39 40 41 41 42 43 44 45 45 45 45 45 46 47 48 48 48
29 28 28 28 29 29 31 32 32 32 31 29 27 27 26 26 26 26 26 26 26 27 27 27 28 29 29 30 31 32 33 34 35 36 36 35 35 35 35 36 36 36 36 36 36 35 35 35 34 34 33 33 32 32 31 31 32 32 32 32 33 33 34 34 35 36 36 38 39 40 40 41 41 42 43 44 44 45 45 45 45 46 46 47 48 48
30 31 31 31 32 32 32 31 30 29 27 27 26 26 26 26 26 26 26 26 26 27 27 27 27 28 29 29 30 30 31 31 32 32 33 33 33 33 35 36 36 36 36 36 36 35 35 35 35 34 34 34 33 32 32 32 32 32 32 33 33 33 33 33 33 35 36 37 38 39 39 40 41 41 42 43 43 44 45 45 45 45 45 46 46 47
33 33 33 32 32 31 30 29 27 27 26 26 26 26 26 26 26 27 27 26 27 27 27 27 28 29 30 30 30 31 31 32 33 33 34 35 35 35 35 36 36 36 36 36 36 35 34 34 34 34 34 34 34 33 32 32 32 32 32 33 33 34 33 33 34 35 36 36 37 38 39 39 40 41 41 42 42 43 43 44 44 45 45 45 46 46
32 31 31 30 30 29 28 27 27 27 26 26 26 26 26 26 27 27 27 27 27 28 28 29 29 29 29 29 29 30 30 30 31 32 33 34 35 36 36 36 36 36 36 36 36 36 35 34 33 34 34 34 34 33 33 32 33 33 33 33 33 33 34 34 35 35 36 36 37 38 39 40 40 41 41 41 41 42 42 43 43 44 44 45 45 45
28 28 28 27 27 27 27 27 27 26 26 26 26 27 27 27 27 27 27 28 28 29 29 30 30 29 29 29 29 28 27 27 27 27 27 28 30 32 34 35 36 36 36 36 36 36 36 35 34 34 34 34 34 34 33 33 33 33 33 33 33 33 34 34 34 35 35 36 37 38 39 40 40 41 41 41 41 41 42 42 43 43 43 44 44 45
27 27 27 27 27 26 27 27 27 27 27 27 27 27 27 27 27 28 29 29 30 30 31 31 31 30 30 29 28 27 27 26 27 27 27 27 28 29 30 32 34 35 36 36 36 36 36 36 36 35 35 34 33 33 33 33 33 33 33 33 33 33 33 33 33 34 35 36 36 37 39 40 40 40 41 41 41 41 41 42 42 43 43 43 44 44
27 27 27 27 27 27 27 27 27 27 27 27 27 28 29 30 31 31 31 32 32 32 32 31 30 29 29 28 27 27 27 27 27 28 28 28 29 30 31 32 33 35 36 36 36 37 37 37 37 36 36 35 34 33 32 32 32 32 32 33 33 33 33 33 33 33 34 35 36 37 39 39 40 40 40 41 41 41 41 41 41 42 42 43 43 44
27 27 27 27 27 28 28 28 28 28 28 28 29 30 31 32 33 33 32 32 31 30 29 29 28 28 28 28 29 29 30 31 31 31 31 32 32 32 32 33 34 35 35 36 36 37 37 38 38 38 37 36 35 34 33 33 33 33 33 33 33 33 33 33 33 33 34 35 36 37 38 39 40 40 41 40 40 40 40 40 41 41 42 42 43 43
27 27 27 27 27 27 27 28 28 29 29 30 30 30 30 30 30 30 29 29 29 28 28 28 28 28 28 29 30 31 32 32 31 31 30 29 29 30 31 32 33 34 34 34 35 35 36 36 37 38 38 38 37 36 35 34 34 33 33 33 33 33 33 33 33 34 34 35 36 37 38 39 40 41 41 40 40 40 40 40 40 41 41 41 42 42
27 27 27 27 27 27 27 27 28 28 28 28 28 28 28 28 27 27 27 27 27 27 27 27 28 28 28 28 29 29 28 27 26 25 25 26 27 27 29 31 32 32 32 32 32 32 32 32 32 33 35 37 38 38 36 36 35 34 34 34 34 34 34 34 34 34 35 35 36 36 37 38 39 40 40 40 40 39 40 39 39 39 40 40 41 41